TimeCST,TemperatureF,Dew PointF,Humidity,Sea Level PressureIn,VisibilityMPH,Wind Direction,Wind SpeedMPH,Gust SpeedMPH,PrecipitationIn,Events,Conditions,WindDirDegrees,DateUTC
12:15 AM,36.5,32.0,84,29.52,10.0,Calm,Calm,-,N/A,,Clear,0,2013-03-04 06:15:00
12:35 AM,36.0,32.0,86,29.52,10.0,Calm,Calm,-,N/A,,Mostly Cloudy,0,2013-03-04 06:35:00
12:55 AM,35.6,32.0,87,29.51,10.0,SSW,3.5,-,N/A,,Mostly Cloudy,200,2013-03-04 06:55:00
1:15 AM,33.6,30.4,88,29.51,10.0,SW,5.8,-,N/A,,Scattered Clouds,220,2013-03-04 07:15:00
1:35 AM,36.7,32.4,84,29.53,10.0,West,11.5,-,N/A,,Clear,260,2013-03-04 07:35:00
1:55 AM,42.8,33.6,70,29.55,10.0,WNW,19.6,31.1,N/A,,Clear,290,2013-03-04 07:55:00
2:15 AM,41.5,34.2,75,29.58,10.0,NW,24.2,33.4,N/A,,Clear,310,2013-03-04 08:15:00
2:35 AM,39.0,34.0,82,29.60,10.0,NW,23.0,29.9,N/A,,Mostly Cloudy,310,2013-03-04 08:35:00
2:55 AM,37.9,33.6,84,29.61,10.0,NW,28.8,36.8,N/A,,Overcast,310,2013-03-04 08:55:00
3:15 AM,37.4,32.9,84,29.62,10.0,NW,25.3,29.9,N/A,,Overcast,310,2013-03-04 09:15:00
3:35 AM,37.8,33.4,84,29.64,10.0,NW,27.6,33.4,N/A,,Overcast,310,2013-03-04 09:35:00
3:55 AM,37.4,32.4,82,29.66,10.0,NNW,31.1,40.3,N/A,,Overcast,330,2013-03-04 09:55:00
4:15 AM,36.7,32.0,83,29.67,10.0,NW,19.6,35.7,N/A,,Overcast,320,2013-03-04 10:15:00
4:35 AM,36.7,31.8,83,29.68,10.0,NNW,24.2,36.8,N/A,,Overcast,330,2013-03-04 10:35:00
4:55 AM,36.5,31.6,83,29.68,10.0,NNW,31.1,34.5,N/A,,Overcast,330,2013-03-04 10:55:00
5:15 AM,36.1,31.1,82,29.69,10.0,NNW,28.8,36.8,N/A,,Overcast,330,2013-03-04 11:15:00
5:35 AM,36.1,30.7,81,29.69,10.0,NNW,27.6,40.3,N/A,,Overcast,330,2013-03-04 11:35:00
5:55 AM,36.0,30.2,80,29.70,10.0,NNW,26.5,35.7,N/A,,Overcast,330,2013-03-04 11:55:00
6:15 AM,35.2,29.5,80,29.71,10.0,NW,17.3,25.3,N/A,,Scattered Clouds,320,2013-03-04 12:15:00
6:35 AM,34.7,29.3,81,29.73,10.0,NW,17.3,31.1,N/A,,Scattered Clouds,320,2013-03-04 12:35:00
6:55 AM,33.8,28.9,82,29.74,10.0,NW,19.6,24.2,N/A,,Clear,310,2013-03-04 12:55:00
7:15 AM,33.8,28.4,81,29.74,10.0,NW,18.4,24.2,N/A,,Clear,310,2013-03-04 13:15:00
7:35 AM,33.8,27.7,78,29.76,10.0,NW,16.1,21.9,N/A,,Clear,320,2013-03-04 13:35:00
7:55 AM,34.2,27.1,75,29.76,10.0,NW,17.3,23.0,N/A,,Clear,320,2013-03-04 13:55:00
8:15 AM,34.9,25.5,69,29.78,10.0,NW,16.1,-,N/A,,Clear,320,2013-03-04 14:15:00
8:35 AM,35.6,23.7,62,29.78,10.0,NW,20.7,27.6,N/A,,Clear,320,2013-03-04 14:35:00
8:55 AM,36.5,22.1,56,29.79,10.0,NW,20.7,28.8,N/A,,Clear,320,2013-03-04 14:55:00
9:15 AM,37.0,21.9,54,29.80,10.0,NNW,21.9,27.6,N/A,,Clear,330,2013-03-04 15:15:00
9:35 AM,37.8,21.9,53,29.80,10.0,NNW,24.2,31.1,N/A,,Clear,330,2013-03-04 15:35:00
9:55 AM,38.5,22.3,52,29.80,10.0,NW,24.2,32.2,N/A,,Clear,320,2013-03-04 15:55:00
10:15 AM,39.2,22.6,52,29.80,10.0,NNW,25.3,29.9,N/A,,Clear,330,2013-03-04 16:15:00
10:35 AM,40.1,22.3,49,29.80,10.0,NNW,19.6,26.5,N/A,,Clear,330,2013-03-04 16:35:00
10:55 AM,40.5,23.2,50,29.80,10.0,NNW,21.9,27.6,N/A,,Clear,330,2013-03-04 16:55:00
11:15 AM,41.0,22.1,47,29.80,10.0,NW,21.9,26.5,N/A,,Clear,320,2013-03-04 17:15:00
11:35 AM,41.2,21.2,45,29.80,10.0,NNW,21.9,26.5,N/A,,Clear,340,2013-03-04 17:35:00
11:55 AM,41.2,21.4,45,29.79,10.0,NNW,17.3,28.8,N/A,,Clear,340,2013-03-04 17:55:00
12:15 PM,40.8,21.7,47,29.80,10.0,NNW,21.9,28.8,N/A,,Clear,340,2013-03-04 18:15:00
12:55 PM,42.3,20.1,41,29.78,10.0,NW,17.3,26.5,N/A,,Clear,320,2013-03-04 18:55:00
1:15 PM,42.3,18.9,39,29.78,10.0,NW,18.4,29.9,N/A,,Clear,320,2013-03-04 19:15:00
1:35 PM,43.0,16.3,34,29.78,10.0,NW,17.3,26.5,N/A,,Clear,320,2013-03-04 19:35:00
1:55 PM,43.3,15.1,32,29.78,10.0,NW,15.0,26.5,N/A,,Clear,310,2013-03-04 19:55:00
2:15 PM,44.1,16.2,33,29.78,10.0,NW,18.4,28.8,N/A,,Clear,320,2013-03-04 20:15:00
2:35 PM,44.1,15.3,31,29.78,10.0,WNW,11.5,23.0,N/A,,Clear,300,2013-03-04 20:35:00
2:55 PM,43.7,16.3,33,29.79,10.0,NW,11.5,24.2,N/A,,Scattered Clouds,320,2013-03-04 20:55:00
3:15 PM,43.7,16.5,34,29.80,10.0,WNW,12.7,16.1,N/A,,Mostly Cloudy,300,2013-03-04 21:15:00
3:35 PM,43.3,16.0,33,29.81,10.0,NW,13.8,23.0,N/A,,Overcast,320,2013-03-04 21:35:00
3:55 PM,41.5,16.5,36,29.83,10.0,North,16.1,20.7,N/A,,Overcast,350,2013-03-04 21:55:00
4:15 PM,36.7,15.8,43,29.87,10.0,NNW,29.9,35.7,N/A,,Overcast,340,2013-03-04 22:15:00
4:35 PM,35.6,13.6,41,29.89,10.0,NW,23.0,34.5,N/A,,Mostly Cloudy,320,2013-03-04 22:35:00
4:55 PM,34.0,11.8,40,29.90,10.0,NNW,27.6,33.4,N/A,,Scattered Clouds,330,2013-03-04 22:55:00
5:15 PM,32.9,10.9,40,29.92,10.0,NW,24.2,36.8,N/A,,Mostly Cloudy,320,2013-03-04 23:15:00
5:35 PM,32.5,8.8,37,29.96,10.0,NW,26.5,36.8,N/A,,Scattered Clouds,310,2013-03-04 23:35:00
5:55 PM,32.0,7.2,35,29.98,10.0,NW,26.5,38.0,N/A,,Scattered Clouds,310,2013-03-04 23:55:00
6:15 PM,30.2,9.9,43,29.99,10.0,NW,27.6,38.0,N/A,,Overcast,310,2013-03-05 00:15:00
6:35 PM,29.3,7.7,40,30.01,10.0,NW,31.1,41.4,N/A,,Mostly Cloudy,310,2013-03-05 00:35:00
6:55 PM,27.5,10.6,49,30.03,10.0,NW,27.6,34.5,N/A,,Clear,310,2013-03-05 00:55:00
7:15 PM,26.6,10.4,51,30.03,10.0,NW,27.6,39.1,N/A,,Clear,310,2013-03-05 01:15:00
7:35 PM,26.2,10.9,52,30.04,10.0,WNW,20.7,32.2,N/A,,Clear,300,2013-03-05 01:35:00
7:55 PM,25.7,11.7,55,30.05,10.0,NW,26.5,41.4,N/A,,Scattered Clouds,310,2013-03-05 01:55:00
8:15 PM,24.8,12.2,59,30.06,10.0,WNW,23.0,32.2,N/A,,Scattered Clouds,290,2013-03-05 02:15:00
8:35 PM,24.6,13.1,62,30.06,10.0,NW,25.3,31.1,N/A,,Scattered Clouds,310,2013-03-05 02:35:00
8:55 PM,23.7,14.2,67,30.06,10.0,WNW,26.5,34.5,N/A,Snow,Light Snow,300,2013-03-05 02:55:00
9:15 PM,23.5,15.1,70,30.07,10.0,WNW,20.7,28.8,N/A,,Scattered Clouds,300,2013-03-05 03:15:00
9:35 PM,23.2,16.0,74,30.08,4.0,NW,28.8,38.0,N/A,Snow,Light Snow,310,2013-03-05 03:35:00
9:55 PM,22.6,11.8,63,30.08,10.0,NW,25.3,38.0,N/A,,Scattered Clouds,310,2013-03-05 03:55:00
10:15 PM,22.5,12.0,64,30.08,10.0,WNW,23.0,35.7,N/A,,Scattered Clouds,300,2013-03-05 04:15:00
10:35 PM,22.1,10.9,62,30.08,10.0,NW,26.5,38.0,N/A,,Scattered Clouds,310,2013-03-05 04:35:00
10:55 PM,21.9,12.0,66,30.08,10.0,WNW,24.2,33.4,N/A,,Scattered Clouds,300,2013-03-05 04:55:00
11:15 PM,21.9,11.1,63,30.08,10.0,NW,28.8,42.6,N/A,,Scattered Clouds,310,2013-03-05 05:15:00
11:35 PM,21.4,11.1,65,30.08,10.0,NW,23.0,34.5,N/A,,Scattered Clouds,310,2013-03-05 05:35:00
11:55 PM,21.2,10.0,62,30.08,10.0,NW,25.3,34.5,N/A,,Clear,310,2013-03-05 05:55:00